Location: Kimberly
(42.5380°N, 114.3640°W)
Time: 19:35:36
(UTC-06:00)

X-37B - Visible Passes

Search period start: 05 May 2021 00:00
Search period end: 15 May 2021 00:00
Orbit: 386 x 389 km, 45.0° (Epoch: 04 May)

Date Brightness Start Highest point End Pass type
(mag) Time Alt. Az. Time Alt. Az. Time Alt. Az.
05 May 1.3 22:40:23 10° W 22:43:31 52° N 22:44:23 38° NE visible
06 May 1.1 21:41:55 10° W 21:45:03 60° N 21:48:14 10° ENE visible
06 May 2.0 23:18:46 10° WNW 23:20:58 38° NW 23:20:58 38° NW visible
07 May 1.3 22:20:21 10° WNW 22:23:29 52° N 22:25:09 23° ENE visible
07 May 3.6 23:57:03 10° WNW 23:57:27 13° WNW 23:57:27 13° WNW visible
08 May 1.3 21:21:54 10° W 21:25:01 52° N 21:28:09 10° ENE visible
08 May 0.8 22:58:40 10° WNW 23:01:35 68° NW 23:01:35 68° NW visible
09 May 1.0 22:00:17 10° WNW 22:03:26 59° N 22:05:42 17° E visible
09 May 3.1 23:37:00 10° W 23:37:58 18° W 23:37:58 18° W visible
10 May 0.4 22:38:34 10° WNW 22:41:45 74° SSW 22:42:04 65° SSE visible
11 May 0.7 21:40:11 10° WNW 21:43:23 76° NNE 21:46:10 13° E visible
11 May 2.8 23:17:05 10° W 23:18:27 19° WSW 23:18:27 19° WSW visible
12 May 1.1 22:18:31 10° W 22:21:34 44° SSW 22:22:33 32° SSE visible
13 May 0.6 21:20:05 10° WNW 21:23:16 73° SSW 21:26:26 10° ESE visible
13 May 2.9 22:57:33 10° WSW 22:58:59 15° SW 22:58:59 15° SW visible
14 May 2.1 21:58:37 10° W 22:01:20 26° SSW 22:03:09 16° SSE visible
